Weather History for Gaylord, MI

Change the Weather History Date:

Saturday, May 11, 2013

  Actual Average Record
Temperature  
Mean Temperature 40 °F -  
Max Temperature 52 °F 67 °F 85 °F (1982)
Min Temperature 30 °F 39 °F 26 °F (1963)
Degree Days  
Heating Degree Days 24    
Moisture  
Dew Point 34 °F    
Average Humidity 88    
Maximum Humidity 100    
Minimum Humidity 68    
Precipitation  
Precipitation 0.24 in - - ()
Sea Level Pressure  
Sea Level Pressure 29.78 in    
Wind  
Wind Speed 5 mph (West)    
Max Wind Speed 18 mph    
Max Gust Speed 30 mph    
Visibility 7 miles    
Events Fog , Rain , Snow    
Averages and records for this station are not official NWS values.
T = Trace of Precipitation, MM = Missing Value Source: NWS Daily Summary

Daily Weather History Graph

Daily Weather History Graph

Search for Another Location

Airport:

Trip Planner

Search our weather history database for the weather conditions in past years. The results will help you decide how hot, cold, wet, or windy it might be!

Date:

Astronomy

May. 11, 2013 Rise Set
Actual Time 6:14 AM EDT 8:56 PM EDT
Civil Twilight 5:40 AM EDT 9:30 PM EDT
Nautical Twilight 4:57 AM EDT 10:13 PM EDT
Astronomical Twilight 4:08 AM EDT 11:03 PM EDT
Moon 7:20 AM EDT (5/11) 10:38 PM EDT (5/11)
Length of Visible Light 15h 50m
Length of Day
14h 42m
Waxing Crescent, 3% of the Moon is Illuminated
May 11
Waxing Crescent
May 18
First Quarter
May 25
Full
May 31
Last Quarter
Jun 8
New

Hourly Weather History & Observations

Time (EDT) Temp. Windchill Dew Point Humidity Pressure Visibility Wind Dir Wind Speed Gust Speed Precip Events Conditions
12:53 AM 37.9 °F 34.4 °F 30.9 °F 76% 29.94 in 10.0 mi Variable 4.6 mph - N/A   Overcast
1:53 AM 37.9 °F - 30.9 °F 76% 29.91 in 10.0 mi Calm Calm - N/A   Overcast
2:53 AM 37.9 °F - 30.0 °F 73% 29.90 in 10.0 mi Calm Calm - N/A   Mostly Cloudy
3:06 AM 37.4 °F - 30.2 °F 75% 29.87 in 10.0 mi Calm Calm - N/A   Scattered Clouds
3:53 AM 35.1 °F - 30.0 °F 82% 29.88 in 10.0 mi Calm Calm - N/A   Clear
4:53 AM 32.0 °F - 30.0 °F 92% 29.88 in 10.0 mi Calm Calm - N/A   Clear
5:53 AM 30.9 °F - 30.0 °F 96% 29.87 in 10.0 mi Calm Calm - N/A   Clear
6:53 AM 32.0 °F 28.7 °F 30.9 °F 96% 29.86 in 10.0 mi SW 3.5 mph - N/A   Scattered Clouds
7:00 AM 32.0 °F - 30.2 °F 93% 29.82 in 10.0 mi Calm Calm - N/A   Mostly Cloudy
7:51 AM 33.8 °F - 32.0 °F 93% 29.81 in 10.0 mi Calm Calm - N/A   Scattered Clouds
7:53 AM 34.0 °F - 32.0 °F 92% 29.85 in 10.0 mi Calm Calm - N/A   Partly Cloudy
8:53 AM 39.9 °F 35.1 °F 30.9 °F 70% 29.83 in 10.0 mi SSW 6.9 mph - N/A   Clear
9:53 AM 44.1 °F 39.5 °F 37.0 °F 76% 29.81 in 10.0 mi SSW 8.1 mph - N/A   Scattered Clouds
10:53 AM 48.0 °F - 39.9 °F 74% 29.76 in 10.0 mi Variable 4.6 mph - N/A   Scattered Clouds
11:12 AM 50.0 °F - 41.0 °F 71% 29.73 in 10.0 mi Variable 6.9 mph - N/A   Mostly Cloudy
11:53 AM 51.1 °F - 41.0 °F 68% 29.74 in 10.0 mi SW 8.1 mph - N/A   Overcast
12:53 PM 51.1 °F - 42.1 °F 71% 29.70 in 10.0 mi SW 10.4 mph - N/A   Overcast
1:19 PM 46.4 °F 40.1 °F 44.6 °F 93% 29.68 in 3.0 mi WSW 15.0 mph - 0.07 in Rain Rain
1:28 PM 46.4 °F 41.9 °F 44.6 °F 93% 29.68 in 3.0 mi West 9.2 mph - 0.09 in Rain Rain
1:52 PM 46.9 °F - 45.0 °F 93% 29.70 in 8.0 mi West 6.9 mph - 0.10 in Rain Light Rain
2:03 PM 46.4 °F 41.9 °F 44.6 °F 93% 29.67 in 10.0 mi West 9.2 mph - 0.00 in Rain Light Rain
2:19 PM 46.4 °F 40.4 °F 44.6 °F 93% 29.67 in 3.0 mi WSW 13.8 mph - 0.03 in Rain Rain
2:53 PM 41.0 °F 32.2 °F 39.0 °F 93% 29.71 in 5.0 mi West 18.4 mph 26.5 mph 0.07 in Rain Light Rain
3:53 PM 34.0 °F 27.2 °F 33.1 °F 96% 29.75 in 2.0 mi WNW 8.1 mph 17.3 mph 0.03 in Snow Light Snow
4:12 PM 33.8 °F 25.3 °F 32.0 °F 93% 29.74 in 1.2 mi WNW 11.5 mph 18.4 mph 0.00 in Snow Light Snow
4:26 PM 32.0 °F 24.8 °F 32.0 °F 100% 29.73 in 0.5 mi WNW 8.1 mph 19.6 mph 0.01 in Fog , Snow Snow
4:53 PM 33.1 °F 26.9 °F 30.9 °F 92% 29.78 in 0.8 mi Variable 6.9 mph 19.6 mph 0.02 in Snow Light Snow
5:00 PM 33.8 °F 27.0 °F 32.0 °F 93% 29.74 in 0.8 mi WNW 8.1 mph 18.4 mph 0.00 in Snow Light Snow
5:36 PM 33.8 °F 25.8 °F 32.0 °F 93% 29.75 in 1.2 mi NW 10.4 mph 21.9 mph 0.01 in Snow Light Snow
5:43 PM 33.8 °F 26.4 °F 30.2 °F 87% 29.76 in 0.8 mi NW 9.2 mph 29.9 mph 0.01 in Snow Light Snow
5:53 PM 33.1 °F 26.1 °F 32.0 °F 96% 29.80 in 0.8 mi WNW 8.1 mph 21.9 mph 0.02 in Snow Light Snow
5:58 PM 33.8 °F 27.0 °F 32.0 °F 93% 29.76 in 1.0 mi WNW 8.1 mph 21.9 mph 0.00 in Snow Light Snow
6:06 PM 33.8 °F 26.4 °F 32.0 °F 93% 29.76 in 2.0 mi NW 9.2 mph 18.4 mph 0.00 in Snow Light Snow
6:10 PM 33.8 °F 25.8 °F 32.0 °F 93% 29.77 in 3.0 mi NW 10.4 mph 18.4 mph 0.00 in Snow Light Snow
6:27 PM 33.8 °F 26.4 °F 32.0 °F 93% 29.77 in 9.0 mi WNW 9.2 mph - 0.00 in   Overcast
6:53 PM 34.0 °F 28.0 °F 32.0 °F 92% 29.82 in 9.0 mi WNW 6.9 mph - 0.00 in Snow Light Snow
7:25 PM 35.6 °F 29.2 °F 33.8 °F 93% 29.78 in 10.0 mi West 8.1 mph - 0.00 in   Overcast
7:53 PM 35.1 °F 29.3 °F 34.0 °F 96% 29.82 in 10.0 mi West 6.9 mph - 0.00 in   Scattered Clouds
8:53 PM 35.1 °F 29.3 °F 32.0 °F 89% 29.81 in 10.0 mi West 6.9 mph - N/A   Scattered Clouds
9:53 PM 35.1 °F 28.6 °F 32.0 °F 89% 29.80 in 10.0 mi West 8.1 mph - N/A   Mostly Cloudy
10:53 PM 34.0 °F 28.0 °F 32.0 °F 92% 29.79 in 10.0 mi West 6.9 mph - N/A   Mostly Cloudy
11:53 PM 36.0 °F 29.0 °F 30.9 °F 82% 29.76 in 10.0 mi West 9.2 mph - 0.00 in   Overcast